Regional Weather Roundup
Issued by NWS

Home | Current Version | Previous Version | Graphics & Text | Print | Product List | Glossary On
Versions: 1 2 3 4 5 6 7 8 9 10 11 12 13 14 15 16 17 18 19 20 21 22 23 24 25 26 27 28 29 30 31 32 33 34 35 36 37 38 39 40 41 42 43 44 45 46 47 48 49 50
878
ASUS43 KOAX 051310
RWRNE

WEATHER ROUNDUP FOR NEBRASKA
NATIONAL WEATHER SERVICE OMAHA NE
800 AM CDT THU MAY 05 2016

NOTES: SATELLITE DATA IS BEING USED TO AUGMENT CLOUD COVER ABOVE
       12000 FEET.
       "FAIR" INDICATES FEW OR NO CLOUDS BELOW 12,000 FEET WITH NO
       SIGNIFICANT WEATHER AND/OR OBSTRUCTIONS TO VISIBILITY.

  * THESE STATIONS DO NOT REPORT WEATHER SUCH AS RAIN...SNOW OR FOG.

NEZ001>004-019>022-054>056-051400-
NEBRASKA PANHANDLE

CITY           SKY/WX    TMP DP  RH WIND       PRES   REMARKS
SCOTTSBLUFF    SUNNY     54  43  66 E5        30.06S
ALLIANCE       SUNNY     48  44  86 SE8       30.06S
CHADRON        SUNNY     56  46  69 N5        29.99S
KIMBALL        CLOUDY    48  42  78 W8        30.11S
SIDNEY         SUNNY     51  43  74 W7        30.10R
$$

NEZ057>060-069>072-079>082-051400-
SOUTHWEST NEBRASKA

CITY           SKY/WX    TMP DP  RH WIND       PRES   REMARKS
NORTH PLATTE   SUNNY     48  42  80 SE6       30.10R
IMPERIAL       SUNNY     50  44  80 SW3       30.11R
LEXINGTON      SUNNY     60  41  48 CALM      30.11S
MCCOOK         SUNNY     46  43  89 CALM      30.11R
OGALLALA       SUNNY     46  42  86 CALM      30.10S
$$

NEZ005>010-023>029-035>040-094-051400-
NORTH CENTRAL NEBRASKA

CITY           SKY/WX    TMP DP  RH WIND       PRES   REMARKS
VALENTINE      SUNNY     52  42  69 CALM      30.06R
AINSWORTH      SUNNY     52  43  72 S7        30.07S
BROKEN BOW     SUNNY     48  41  76 CALM      30.10R
O`NEILL        SUNNY     51  43  76 SW5       30.08R
ORD            SUNNY     44  41  89 CALM      30.09R
THEDFORD       SUNNY     51  44  76 CALM      30.09R
$$

NEZ041-046>049-061>064-073>077-083>087-051400-
SOUTH CENTRAL NEBRASKA

CITY           SKY/WX    TMP DP  RH WIND       PRES   REMARKS
GRAND ISLAND   SUNNY     49  40  71 W3        30.11S
AURORA         SUNNY     50  40  67 W5        30.11R
HASTINGS       SUNNY     50  40  68 CALM      30.10S
HEBRON         SUNNY     46  41  80 CALM      30.11R
HOLDREGE       SUNNY     49  43  81 CALM      30.11R
KEARNEY *      SUNNY     46  39  76 W3        30.11S
YORK           SUNNY     48  41  76 W8        30.11R
$$

NEZ011>018-030>034-042>045-051400-
NORTHEAST NEBRASKA

CITY           SKY/WX    TMP DP  RH WIND       PRES   REMARKS
NORFOLK        SUNNY     50  40  68 CALM      30.08R
ALBION         SUNNY     45  41  86 CALM      30.09S
BLAIR          MOSUNNY   53  42  67 CALM      30.08R
COLUMBUS *     SUNNY     46  36  66 CALM      30.10R
FREMONT        SUNNY     48  43  82 W6        30.09R
TEKAMAH        SUNNY     49  43  80 CALM      30.08R
WAYNE          SUNNY     46  42  84 CALM      30.09R
$$

NEZ050>053-065>068-078-088>093-051400-
SOUTHEAST NEBRASKA

CITY           SKY/WX    TMP DP  RH WIND       PRES   REMARKS
LINCOLN        SUNNY     49  41  74 CALM      30.10R
OMAHA EPPLEY   MOSUNNY   50  44  80 CALM      30.08R
BEATRICE       SUNNY     47  41  79 NW3       30.09R
FALLS CITY     SUNNY     50  43  77 NW6       30.07R
NEBRASKA CITY  SUNNY     53  38  57 N6        30.08R
PLATTSMOUTH    SUNNY     52  44  73 NW3       30.08R
$$

NEZ044-045-051>053-067-051400-
OMAHA AREA

CITY           SKY/WX    TMP DP  RH WIND       PRES   REMARKS
OMAHA EPPLEY   MOSUNNY   50  44  80 CALM      30.08R
BLAIR          MOSUNNY   53  42  67 CALM      30.08R
FREMONT        SUNNY     48  43  82 W6        30.09R
MILLARD        SUNNY     51  43  73 CALM      30.08R
OFFUTT AFB     SUNNY     50  44  80 NW5       30.07R
PLATTSMOUTH    SUNNY     52  44  73 NW3       30.08R
WAHOO          FAIR      49  42  76 CALM      30.09R
$$




USA.gov is the U.S. government's official web portal to all federal, state and local government web resources and services.